Tracy, MN

12:55 AM CDT on October 01, 2016 (GMT -0500)
Tracy

Weather History for KTKC - March, 2014

Change the Weather History Date:

Friday, March 21, 2014

  Actual Average (KMML) Record (KMML)
Temperature  
Mean Temperature 32 °F -  
Max Temperature 45 °F 41 °F 63 °F (1985)
Min Temperature 19 °F 24 °F -7 °F (1951)
Degree Days  
Heating Degree Days 32    
Moisture  
Dew Point 27 °F    
Average Humidity 77    
Maximum Humidity 86    
Minimum Humidity 68    
Precipitation  
Precipitation 0.00 in - - ()
Sea Level Pressure  
Sea Level Pressure 29.91 in    
Wind  
Wind Speed 16 mph (NW)    
Max Wind Speed 32 mph    
Max Gust Speed 38 mph    
Visibility 10 miles    
Events      
Averages and records for this station are not official NWS values.
T = Trace of Precipitation, MM = Missing Value Source: NWS Daily Summary

Daily Weather History Graph

Daily Weather History Graph

Search for Another Location

Airport or City:

Trip Planner

Search our weather history database for the weather conditions in past years. The results will help you decide how hot, cold, wet, or windy it might be!

Date:

Astronomy

Mar. 21, 2014 Rise Set
Actual Time 7:23 AM CDT 7:36 PM CDT
Civil Twilight 6:54 AM CDT 8:05 PM CDT
Nautical Twilight 6:20 AM CDT 8:39 PM CDT
Astronomical Twilight 5:46 AM CDT 9:14 PM CDT
Moon 12:05 AM CDT (3/21) 10:06 AM CDT (3/21)
Length of Visible Light 13h 10m
Length of Day
12h 12m
Waning Gibbous, 75% of the Moon is Illuminated
Mar 21
Waning Gibbous
Mar 23
Last Quarter
Mar 30
New
Apr 7
First Quarter
Apr 15
Full

Hourly Weather History & Observations

Time (CDT) Temp. Windchill Dew Point Humidity Pressure Visibility Wind Dir Wind Speed Gust Speed Precip Events Conditions
12:12 AM 38.3 °F 29.7 °F 31.6 °F 77% 29.76 in 10.0 mi South 15.0 mph - N/A   Clear
12:32 AM 38.3 °F 28.4 °F 31.5 °F 76% 29.76 in 10.0 mi South 19.6 mph 24.2 mph N/A   Clear
12:52 AM 37.8 °F 28.3 °F 31.1 °F 77% 29.75 in 10.0 mi South 17.3 mph 23.0 mph N/A   Clear
1:12 AM 37.4 °F 28.2 °F 31.1 °F 78% 29.75 in 10.0 mi South 16.1 mph 25.3 mph N/A   Clear
1:32 AM 37.4 °F 27.8 °F 30.9 °F 77% 29.74 in 10.0 mi South 17.3 mph 26.5 mph N/A   Clear
1:53 AM 37.2 °F 27.6 °F 30.7 °F 77% 29.74 in 10.0 mi South 17.3 mph 23.0 mph N/A   Clear
2:12 AM 37.4 °F 27.5 °F 30.2 °F 75% 29.73 in 10.0 mi South 18.4 mph 28.8 mph N/A   Clear
2:32 AM 37.8 °F 28.3 °F 30.2 °F 74% 29.72 in 10.0 mi South 17.3 mph 23.0 mph N/A   Scattered Clouds
2:52 AM 37.9 °F 28.5 °F 29.8 °F 73% 29.72 in 10.0 mi South 17.3 mph 24.2 mph N/A   Scattered Clouds
3:12 AM 38.3 °F 28.4 °F 29.7 °F 71% 29.71 in 10.0 mi South 19.6 mph 26.5 mph N/A   Overcast
3:32 AM 38.7 °F 29.5 °F 29.3 °F 69% 29.72 in 10.0 mi SSW 17.3 mph 26.5 mph N/A   Overcast
3:53 AM 38.7 °F 30.1 °F 29.3 °F 69% 29.72 in 10.0 mi South 15.0 mph 25.3 mph N/A   Overcast
4:13 AM 38.7 °F 30.5 °F 29.1 °F 69% 29.72 in 10.0 mi South 13.8 mph 28.8 mph N/A   Overcast
4:32 AM 37.9 °F 31.5 °F 29.5 °F 72% 29.76 in 10.0 mi WSW 9.2 mph 21.9 mph N/A   Overcast
4:52 AM 37.9 °F - 30.0 °F 73% 29.77 in 10.0 mi Calm Calm - N/A   Overcast
5:12 AM 37.0 °F - 30.2 °F 76% 29.76 in 10.0 mi Calm Calm - N/A   Overcast
5:32 AM 36.5 °F - 30.0 °F 77% 29.76 in 10.0 mi Calm Calm - N/A   Mostly Cloudy
5:53 AM 34.3 °F - 29.5 °F 82% 29.75 in 10.0 mi Calm Calm - N/A   Scattered Clouds
6:12 AM 33.3 °F - 28.9 °F 84% 29.73 in 10.0 mi Calm Calm - N/A   Clear
6:33 AM 34.0 °F - 29.3 °F 83% 29.72 in 10.0 mi Calm Calm - N/A   Clear
6:52 AM 33.1 °F - 29.1 °F 85% 29.72 in 10.0 mi Calm Calm - N/A   Clear
7:12 AM 34.0 °F - 29.7 °F 84% 29.73 in 10.0 mi Calm Calm - N/A   Clear
7:32 AM 34.7 °F 26.4 °F 30.2 °F 84% 29.73 in 10.0 mi SW 11.5 mph - N/A   Mostly Cloudy
7:52 AM 35.2 °F 27.1 °F 30.7 °F 84% 29.74 in 10.0 mi WSW 11.5 mph - N/A   Overcast
8:12 AM 36.5 °F 31.8 °F 31.8 °F 83% 29.74 in 10.0 mi West 5.8 mph - N/A   Scattered Clouds
8:33 AM 39.0 °F 34.0 °F 32.5 °F 78% 29.74 in 10.0 mi West 6.9 mph - N/A   Clear
8:53 AM 40.6 °F 36.0 °F 33.4 °F 75% 29.75 in 10.0 mi West 6.9 mph - N/A   Clear
9:13 AM 41.0 °F - 34.0 °F 76% 29.76 in 10.0 mi Calm Calm - N/A   Clear
9:32 AM 41.9 °F - 34.9 °F 76% 29.76 in 10.0 mi Calm Calm - N/A   Clear
9:52 AM 42.8 °F 37.5 °F 34.9 °F 74% 29.77 in 10.0 mi WNW 9.2 mph - N/A   Scattered Clouds
10:12 AM 43.9 °F 36.8 °F 36.0 °F 74% 29.77 in 10.0 mi NW 15.0 mph 23.0 mph N/A   Clear
10:32 AM 44.6 °F 37.2 °F 36.7 °F 74% 29.78 in 10.0 mi NW 17.3 mph - N/A   Clear
10:53 AM 45.0 °F 37.4 °F 36.9 °F 73% 29.79 in 10.0 mi NNW 18.4 mph 27.6 mph N/A   Scattered Clouds
11:12 AM 42.4 °F 32.6 °F 35.6 °F 77% 29.81 in 10.0 mi NNW 25.3 mph 31.1 mph N/A   Mostly Cloudy
11:32 AM 40.6 °F 30.9 °F 34.7 °F 79% 29.82 in 10.0 mi NW 21.9 mph 29.9 mph N/A   Overcast
11:53 AM 38.5 °F 28.3 °F 34.5 °F 86% 29.84 in 10.0 mi NW 20.7 mph 28.8 mph N/A   Overcast
12:12 PM 38.8 °F 27.8 °F 33.8 °F 82% 29.85 in 10.0 mi NNW 25.3 mph 28.8 mph N/A   Overcast
12:33 PM 37.8 °F 27.1 °F 32.9 °F 83% 29.86 in 10.0 mi NNW 21.9 mph 31.1 mph N/A   Overcast
12:52 PM 36.7 °F 25.7 °F 32.0 °F 83% 29.88 in 10.0 mi NW 21.9 mph 31.1 mph N/A   Overcast
1:12 PM 35.4 °F 23.2 °F 30.7 °F 83% 29.89 in 10.0 mi NW 25.3 mph 34.5 mph N/A   Overcast
1:32 PM 34.7 °F 21.8 °F 30.2 °F 84% 29.90 in 10.0 mi NNW 27.6 mph 33.4 mph N/A   Overcast
1:52 PM 34.2 °F 21.5 °F 29.8 °F 84% 29.91 in 10.0 mi NNW 25.3 mph 33.4 mph N/A   Overcast
2:12 PM 34.2 °F 22.1 °F 29.1 °F 82% 29.92 in 10.0 mi NNW 23.0 mph 32.2 mph N/A   Overcast
2:32 PM 35.8 °F 22.3 °F 30.0 °F 80% 29.93 in 10.0 mi NNW 32.2 mph 38.0 mph N/A   Overcast
2:53 PM 36.0 °F 23.5 °F 29.7 °F 78% 29.94 in 10.0 mi NNW 27.6 mph 36.8 mph N/A   Overcast
3:12 PM 36.9 °F 24.4 °F 29.3 °F 74% 29.95 in 10.0 mi NNW 28.8 mph 35.7 mph N/A   Mostly Cloudy
3:33 PM 36.7 °F 25.1 °F 29.1 °F 74% 29.96 in 10.0 mi NNW 24.2 mph 38.0 mph N/A   Overcast
3:53 PM 36.7 °F 24.4 °F 28.9 °F 74% 29.97 in 10.0 mi NNW 27.6 mph 35.7 mph N/A   Mostly Cloudy
4:12 PM 35.8 °F 24.2 °F 28.4 °F 75% 29.99 in 10.0 mi NNW 23.0 mph 35.7 mph N/A   Mostly Cloudy
4:32 PM 35.1 °F 22.5 °F 28.4 °F 77% 30.01 in 10.0 mi NNW 26.5 mph 34.5 mph N/A   Overcast
4:53 PM 33.3 °F 20.1 °F 26.6 °F 77% 30.02 in 10.0 mi NNW 26.5 mph 33.4 mph N/A   Overcast
5:12 PM 32.0 °F 18.1 °F 25.2 °F 76% 30.03 in 10.0 mi NNW 27.6 mph 35.7 mph N/A   Mostly Cloudy
5:32 PM 31.5 °F 18.2 °F 25.5 °F 79% 30.05 in 10.0 mi NNW 24.2 mph 35.7 mph N/A   Mostly Cloudy
5:53 PM 30.2 °F 15.4 °F 24.1 °F 78% 30.06 in 10.0 mi NNW 28.8 mph 38.0 mph N/A   Overcast
6:12 PM 29.7 °F 15.0 °F 23.9 °F 79% 30.07 in 10.0 mi NNW 27.6 mph 33.4 mph N/A   Overcast
6:32 PM 28.8 °F 14.0 °F 23.2 °F 80% 30.08 in 10.0 mi NNW 26.5 mph 36.8 mph N/A   Overcast
6:52 PM 28.4 °F 13.8 °F 23.0 °F 80% 30.10 in 10.0 mi NNW 25.3 mph 31.1 mph N/A   Overcast
7:12 PM 28.0 °F 13.9 °F 22.5 °F 80% 30.12 in 10.0 mi NNW 23.0 mph 29.9 mph N/A   Overcast
7:33 PM 27.1 °F 11.8 °F 20.8 °F 77% 30.13 in 7.0 mi NNW 26.5 mph 33.4 mph N/A   Overcast
7:52 PM 26.6 °F 11.4 °F 20.1 °F 77% 30.14 in 10.0 mi NNW 25.3 mph 33.4 mph N/A   Mostly Cloudy
8:12 PM 26.1 °F 11.3 °F 19.0 °F 75% 30.16 in 10.0 mi NNW 23.0 mph 32.2 mph N/A   Scattered Clouds
8:33 PM 25.7 °F 10.8 °F 18.3 °F 74% 30.17 in 10.0 mi NNW 23.0 mph 35.7 mph N/A   Scattered Clouds
8:52 PM 25.2 °F 11.2 °F 17.8 °F 74% 30.18 in 10.0 mi NNW 19.6 mph 31.1 mph N/A   Scattered Clouds
9:12 PM 24.4 °F 11.9 °F 17.6 °F 75% 30.21 in 10.0 mi NNW 15.0 mph 27.6 mph N/A   Clear
9:32 PM 24.3 °F 9.3 °F 16.7 °F 73% 30.21 in 10.0 mi NNW 21.9 mph 29.9 mph N/A   Clear
9:52 PM 23.7 °F 7.9 °F 15.6 °F 71% 30.23 in 10.0 mi NNW 24.2 mph 32.2 mph N/A   Clear
10:13 PM 22.8 °F 7.0 °F 14.0 °F 69% 30.23 in 10.0 mi NNW 23.0 mph 34.5 mph N/A   Clear
10:32 PM 22.1 °F 7.2 °F 14.5 °F 73% 30.24 in 10.0 mi NNW 19.6 mph 26.5 mph N/A   Clear
10:53 PM 21.7 °F 5.2 °F 13.8 °F 72% 30.25 in 10.0 mi NNW 24.2 mph 31.1 mph N/A   Clear
11:12 PM 21.0 °F 5.4 °F 12.9 °F 71% 30.26 in 10.0 mi NNW 20.7 mph 29.9 mph N/A   Clear
11:32 PM 20.3 °F 4.0 °F 11.3 °F 68% 30.26 in 10.0 mi NNW 21.9 mph 31.1 mph N/A   Clear
11:52 PM 19.9 °F 3.2 °F 11.5 °F 70% 30.27 in 10.0 mi NNW 23.0 mph 29.9 mph N/A   Clear